Time,TemperatureF,DewpointF,PressureIn,WindDirection,WindDirectionDegrees,WindSpeedMPH,WindSpeedGustMPH,Humidity,HourlyPrecipIn,Conditions,Clouds,dailyrainin,SoftwareType,DateUTC
2013-04-21 00:00:00,44.0,29.7,30.15,SSE,153,11.0,11.0,57,0.00,,,0.00,Wunderground v.1.15,2013-04-21 05:00:00,
2013-04-21 00:05:00,44.0,30.2,30.15,SSE,150,11.0,11.0,58,0.00,,,0.00,Wunderground v.1.15,2013-04-21 05:05:00,
2013-04-21 00:15:00,44.0,30.2,30.15,ESE,109,11.0,11.0,58,0.00,,,0.00,Wunderground v.1.15,2013-04-21 05:15:00,
2013-04-21 00:25:00,44.1,30.3,30.16,SE,133,11.0,12.0,58,0.00,,,0.00,Wunderground v.1.15,2013-04-21 05:25:00,
2013-04-21 00:35:00,44.0,30.2,30.15,SE,134,12.0,12.0,58,0.00,,,0.00,Wunderground v.1.15,2013-04-21 05:35:00,
2013-04-21 00:40:00,44.0,30.2,30.15,SE,135,12.0,14.0,58,0.00,,,0.00,Wunderground v.1.15,2013-04-21 05:40:00,
2013-04-21 00:50:00,44.1,30.3,30.15,ESE,119,11.0,13.0,58,0.00,,,0.00,Wunderground v.1.15,2013-04-21 05:50:00,
2013-04-21 00:55:00,44.1,30.3,30.15,ESE,122,12.0,19.0,58,0.00,,,0.00,Wunderground v.1.15,2013-04-21 05:55:00,
2013-04-21 01:05:00,44.2,30.3,30.15,SE,130,11.0,16.0,58,0.00,,,0.00,Wunderground v.1.15,2013-04-21 06:05:00,
2013-04-21 01:15:00,44.2,30.3,30.14,ESE,120,12.0,13.0,58,0.00,,,0.00,Wunderground v.1.15,2013-04-21 06:15:00,
2013-04-21 01:25:00,44.2,30.3,30.15,SE,126,12.0,13.0,58,0.00,,,0.00,Wunderground v.1.15,2013-04-21 06:25:00,
2013-04-21 01:30:00,44.3,30.0,30.15,SE,128,13.0,13.0,57,0.00,,,0.00,Wunderground v.1.15,2013-04-21 06:30:00,
2013-04-21 01:40:00,44.2,30.3,30.15,SE,129,11.0,11.0,58,0.00,,,0.00,Wunderground v.1.15,2013-04-21 06:40:00,
2013-04-21 01:45:00,44.2,30.3,30.15,SE,140,11.0,17.0,58,0.00,,,0.00,Wunderground v.1.15,2013-04-21 06:45:00,
2013-04-21 01:55:00,44.1,30.3,30.14,SE,132,11.0,11.0,58,0.00,,,0.00,Wunderground v.1.15,2013-04-21 06:55:00,
2013-04-21 02:00:00,44.1,30.3,30.14,SE,131,11.0,11.0,58,0.00,,,0.00,Wunderground v.1.15,2013-04-21 07:00:00,
2013-04-21 02:05:00,44.1,30.7,30.14,SE,132,11.0,11.0,59,0.00,,,0.00,Wunderground v.1.15,2013-04-21 07:05:00,
2013-04-21 02:15:00,44.0,30.6,30.13,SE,132,9.0,10.0,59,0.00,,,0.00,Wunderground v.1.15,2013-04-21 07:15:00,
2013-04-21 02:25:00,44.0,30.6,30.13,SE,134,9.0,9.0,59,0.00,,,0.00,Wunderground v.1.15,2013-04-21 07:25:00,
2013-04-21 02:35:00,44.1,30.3,30.13,ESE,121,10.0,10.0,58,0.00,,,0.00,Wunderground v.1.15,2013-04-21 07:35:00,
2013-04-21 02:40:00,44.2,30.8,30.13,North,360,10.0,14.0,59,0.00,,,0.00,Wunderground v.1.15,2013-04-21 07:40:00,
2013-04-21 02:50:00,44.2,30.8,30.13,SE,140,11.0,11.0,59,0.00,,,0.00,Wunderground v.1.15,2013-04-21 07:50:00,
2013-04-21 02:55:00,44.2,30.8,30.12,ESE,118,11.0,11.0,59,0.00,,,0.00,Wunderground v.1.15,2013-04-21 07:55:00,
2013-04-21 03:05:00,44.3,30.9,30.13,SE,130,12.0,14.0,59,0.00,,,0.00,Wunderground v.1.15,2013-04-21 08:05:00,
2013-04-21 03:15:00,44.3,31.3,30.13,SSE,150,10.0,11.0,60,0.00,,,0.00,Wunderground v.1.15,2013-04-21 08:15:00,
2013-04-21 03:25:00,44.3,31.3,30.13,SE,135,7.0,15.0,60,0.00,,,0.00,Wunderground v.1.15,2013-04-21 08:25:00,
2013-04-21 03:35:00,44.3,31.3,30.12,SE,138,10.0,14.0,60,0.00,,,0.00,Wunderground v.1.15,2013-04-21 08:35:00,
2013-04-21 03:40:00,44.3,31.7,30.12,SE,128,10.0,10.0,61,0.00,,,0.00,Wunderground v.1.15,2013-04-21 08:40:00,
2013-04-21 03:45:00,44.3,31.7,30.12,ESE,119,10.0,10.0,61,0.00,,,0.00,Wunderground v.1.15,2013-04-21 08:45:00,
2013-04-21 03:55:00,44.4,31.4,30.13,ESE,122,10.0,10.0,60,0.00,,,0.00,Wunderground v.1.15,2013-04-21 08:55:00,
2013-04-21 04:05:00,44.5,31.5,30.13,SSE,148,8.0,10.0,60,0.00,,,0.00,Wunderground v.1.15,2013-04-21 09:05:00,
2013-04-21 04:15:00,44.4,31.8,30.13,SE,131,7.0,8.0,61,0.00,,,0.00,Wunderground v.1.15,2013-04-21 09:15:00,
2013-04-21 04:20:00,44.3,31.7,30.13,SE,134,6.0,6.0,61,0.00,,,0.00,Wunderground v.1.15,2013-04-21 09:20:00,
2013-04-21 04:30:00,44.2,31.6,30.13,SE,140,6.0,8.0,61,0.00,,,0.00,Wunderground v.1.15,2013-04-21 09:30:00,
2013-04-21 04:35:00,44.2,31.6,30.12,SE,135,7.0,12.0,61,0.00,,,0.00,Wunderground v.1.15,2013-04-21 09:35:00,
2013-04-21 04:45:00,44.3,31.7,30.12,ESE,111,9.0,9.0,61,0.00,,,0.00,Wunderground v.1.15,2013-04-21 09:45:00,
2013-04-21 04:55:00,44.2,32.0,30.12,SSE,149,9.0,10.0,62,0.00,,,0.00,Wunderground v.1.15,2013-04-21 09:55:00,
2013-04-21 05:00:00,44.2,32.0,30.12,SE,129,10.0,10.0,62,0.00,,,0.00,Wunderground v.1.15,2013-04-21 10:00:00,
2013-04-21 05:05:00,44.2,32.0,30.12,SE,131,10.0,10.0,62,0.00,,,0.00,Wunderground v.1.15,2013-04-21 10:05:00,
2013-04-21 05:15:00,44.2,32.0,30.12,SSE,153,9.0,11.0,62,0.00,,,0.00,Wunderground v.1.15,2013-04-21 10:15:00,
2013-04-21 05:20:00,44.1,32.3,30.12,SE,126,9.0,9.0,63,0.00,,,0.00,Wunderground v.1.15,2013-04-21 10:20:00,
2013-04-21 05:30:00,44.0,32.2,30.12,SE,124,8.0,8.0,63,0.00,,,0.00,Wunderground v.1.15,2013-04-21 10:30:00,
2013-04-21 05:40:00,43.9,32.1,30.12,SE,141,6.0,7.0,63,0.00,,,0.00,Wunderground v.1.15,2013-04-21 10:40:00,
2013-04-21 05:45:00,43.9,32.5,30.12,SE,125,6.0,10.0,64,0.00,,,0.00,Wunderground v.1.15,2013-04-21 10:45:00,
2013-04-21 05:50:00,43.9,32.1,30.12,ESE,117,6.0,8.0,63,0.00,,,0.00,Wunderground v.1.15,2013-04-21 10:50:00,
2013-04-21 06:00:00,43.9,32.5,30.12,SE,131,7.0,7.0,64,0.00,,,0.00,Wunderground v.1.15,2013-04-21 11:00:00,
2013-04-21 06:05:00,43.9,32.5,30.12,SE,133,7.0,7.0,64,0.00,,,0.00,Wunderground v.1.15,2013-04-21 11:05:00,
2013-04-21 06:15:00,44.0,32.6,30.12,SE,140,7.0,10.0,64,0.00,,,0.00,Wunderground v.1.15,2013-04-21 11:15:00,
2013-04-21 06:20:00,43.9,32.5,30.12,SE,141,6.0,6.0,64,0.00,,,0.00,Wunderground v.1.15,2013-04-21 11:20:00,
2013-04-21 06:25:00,43.9,32.5,30.12,SE,129,6.0,6.0,64,0.00,,,0.00,Wunderground v.1.15,2013-04-21 11:25:00,
2013-04-21 06:35:00,43.7,32.3,30.12,SE,140,6.0,8.0,64,0.00,,,0.00,Wunderground v.1.15,2013-04-21 11:35:00,
2013-04-21 06:40:00,43.7,32.7,30.13,SE,132,6.0,8.0,65,0.00,,,0.00,Wunderground v.1.15,2013-04-21 11:40:00,
2013-04-21 06:50:00,43.6,32.6,30.13,SE,144,8.0,12.0,65,0.00,,,0.00,Wunderground v.1.15,2013-04-21 11:50:00,
2013-04-21 07:00:00,43.6,32.6,30.13,SE,139,7.0,7.0,65,0.00,,,0.00,Wunderground v.1.15,2013-04-21 12:00:00,
2013-04-21 07:05:00,43.6,32.6,30.13,SSE,165,7.0,7.0,65,0.00,,,0.00,Wunderground v.1.15,2013-04-21 12:05:00,
2013-04-21 07:15:00,43.6,32.6,30.13,SE,126,7.0,8.0,65,0.00,,,0.00,Wunderground v.1.15,2013-04-21 12:15:00,
2013-04-21 07:20:00,43.7,33.1,30.14,SE,137,7.0,7.0,66,0.00,,,0.00,Wunderground v.1.15,2013-04-21 12:20:00,
2013-04-21 07:30:00,43.7,33.1,30.14,SE,127,7.0,7.0,66,0.00,,,0.00,Wunderground v.1.15,2013-04-21 12:30:00,
2013-04-21 07:40:00,43.9,33.3,30.14,SE,134,8.0,12.0,66,0.00,,,0.00,Wunderground v.1.15,2013-04-21 12:40:00,
2013-04-21 07:45:00,43.9,33.3,30.14,SE,130,8.0,12.0,66,0.00,,,0.00,Wunderground v.1.15,2013-04-21 12:45:00,
2013-04-21 07:55:00,44.1,33.5,30.14,SE,134,8.0,10.0,66,0.00,,,0.00,Wunderground v.1.15,2013-04-21 12:55:00,
2013-04-21 08:00:00,44.2,33.6,30.14,ESE,116,8.0,8.0,66,0.00,,,0.00,Wunderground v.1.15,2013-04-21 13:00:00,
2013-04-21 08:05:00,44.3,34.0,30.14,SE,144,8.0,11.0,67,0.00,,,0.00,Wunderground v.1.15,2013-04-21 13:05:00,
2013-04-21 08:15:00,44.9,34.2,30.14,SSE,148,9.0,10.0,66,0.00,,,0.00,Wunderground v.1.15,2013-04-21 13:15:00,
2013-04-21 08:20:00,45.2,34.5,30.14,SE,144,9.0,9.0,66,0.00,,,0.00,Wunderground v.1.15,2013-04-21 13:20:00,
2013-04-21 08:30:00,45.9,35.2,30.14,SE,137,9.0,9.0,66,0.00,,,0.00,Wunderground v.1.15,2013-04-21 13:30:00,
2013-04-21 08:35:00,46.1,35.4,30.13,SE,130,9.0,10.0,66,0.00,,,0.00,Wunderground v.1.15,2013-04-21 13:35:00,
2013-04-21 08:45:00,46.6,35.5,30.14,SE,142,10.0,12.0,65,0.00,,,0.00,Wunderground v.1.15,2013-04-21 13:45:00,
2013-04-21 08:50:00,46.8,35.6,30.14,SSE,163,10.0,10.0,65,0.00,,,0.00,Wunderground v.1.15,2013-04-21 13:50:00,
2013-04-21 09:00:00,47.5,36.3,30.14,SE,138,8.0,8.0,65,0.00,,,0.00,Wunderground v.1.15,2013-04-21 14:00:00,
2013-04-21 09:05:00,47.7,36.1,30.14,SSE,152,8.0,8.0,64,0.00,,,0.00,Wunderground v.1.15,2013-04-21 14:05:00,
2013-04-21 09:15:00,48.6,37.4,30.13,SE,139,8.0,13.0,65,0.00,,,0.00,Wunderground v.1.15,2013-04-21 14:15:00,
2013-04-21 09:25:00,49.4,37.7,30.13,SE,143,7.0,11.0,64,0.00,,,0.00,Wunderground v.1.15,2013-04-21 14:25:00,
2013-04-21 09:30:00,49.6,37.9,30.13,SE,143,8.0,8.0,64,0.00,,,0.00,Wunderground v.1.15,2013-04-21 14:30:00,
2013-04-21 09:40:00,50.4,39.1,30.13,SE,128,7.0,7.0,65,0.00,,,0.00,Wunderground v.1.15,2013-04-21 14:40:00,
2013-04-21 09:50:00,51.4,39.6,30.13,SSE,167,7.0,7.0,64,0.00,,,0.00,Wunderground v.1.15,2013-04-21 14:50:00,
2013-04-21 09:55:00,51.8,39.6,30.13,SSE,153,6.0,11.0,63,0.00,,,0.00,Wunderground v.1.15,2013-04-21 14:55:00,
2013-04-21 10:05:00,52.3,39.7,30.12,SSE,153,9.0,9.0,62,0.00,,,0.00,Wunderground v.1.15,2013-04-21 15:05:00,
2013-04-21 10:15:00,52.6,39.9,30.12,SSE,148,7.0,8.0,62,0.00,,,0.00,Wunderground v.1.15,2013-04-21 15:15:00,
2013-04-21 10:25:00,52.9,40.6,30.12,SSE,157,6.0,7.0,63,0.00,,,0.00,Wunderground v.1.15,2013-04-21 15:25:00,
2013-04-21 10:30:00,53.2,40.9,30.12,South,187,5.0,5.0,63,0.00,,,0.00,Wunderground v.1.15,2013-04-21 15:30:00,
2013-04-21 10:35:00,53.5,40.8,30.12,South,172,7.0,11.0,62,0.00,,,0.00,Wunderground v.1.15,2013-04-21 15:35:00,
2013-04-21 10:45:00,54.2,41.5,30.12,South,184,8.0,9.0,62,0.00,,,0.00,Wunderground v.1.15,2013-04-21 15:45:00,
2013-04-21 10:55:00,56.0,43.6,30.11,South,183,7.0,9.0,63,0.00,,,0.00,Wunderground v.1.15,2013-04-21 15:55:00,
2013-04-21 11:00:00,57.9,45.0,30.11,SSE,161,7.0,7.0,62,0.00,,,0.00,Wunderground v.1.15,2013-04-21 16:00:00,
2013-04-21 11:05:00,60.1,44.3,30.11,SSE,152,8.0,9.0,56,0.00,,,0.00,Wunderground v.1.15,2013-04-21 16:05:00,
2013-04-21 11:15:00,61.8,44.5,30.10,South,190,10.0,10.0,53,0.00,,,0.00,Wunderground v.1.15,2013-04-21 16:15:00,
2013-04-21 11:20:00,62.4,43.0,30.10,South,178,10.0,10.0,49,0.00,,,0.00,Wunderground v.1.15,2013-04-21 16:20:00,
2013-04-21 11:25:00,62.3,43.4,30.10,SSW,207,11.0,11.0,50,0.00,,,0.00,Wunderground v.1.15,2013-04-21 16:25:00,
2013-04-21 11:35:00,63.2,43.2,30.09,SSW,209,12.0,18.0,48,0.00,,,0.00,Wunderground v.1.15,2013-04-21 16:35:00,
2013-04-21 11:45:00,67.1,45.6,30.09,South,173,11.0,16.0,46,0.00,,,0.00,Wunderground v.1.15,2013-04-21 16:45:00,
2013-04-21 11:50:00,66.7,44.7,30.08,SSE,157,12.0,12.0,45,0.00,,,0.00,Wunderground v.1.15,2013-04-21 16:50:00,
2013-04-21 11:55:00,65.9,43.9,30.08,South,189,12.0,12.0,45,0.00,,,0.00,Wunderground v.1.15,2013-04-21 16:55:00,
2013-04-21 12:05:00,65.4,44.6,30.08,ESE,123,11.0,13.0,47,0.00,,,0.00,Wunderground v.1.15,2013-04-21 17:05:00,
2013-04-21 12:15:00,66.7,42.2,30.08,SSW,205,17.0,24.0,41,0.00,,,0.00,Wunderground v.1.15,2013-04-21 17:15:00,
2013-04-21 12:20:00,66.3,42.5,30.08,SSW,199,18.0,18.0,42,0.00,,,0.00,Wunderground v.1.15,2013-04-21 17:20:00,
2013-04-21 12:30:00,65.6,41.3,30.07,SSW,193,19.0,19.0,41,0.00,,,0.00,Wunderground v.1.15,2013-04-21 17:30:00,
2013-04-21 12:35:00,65.0,41.3,30.07,SSE,148,17.0,19.0,42,0.00,,,0.00,Wunderground v.1.15,2013-04-21 17:35:00,
2013-04-21 12:45:00,66.1,43.5,30.06,SW,223,13.0,23.0,44,0.00,,,0.00,Wunderground v.1.15,2013-04-21 17:45:00,
2013-04-21 12:50:00,65.9,42.8,30.06,SSW,199,15.0,15.0,43,0.00,,,0.00,Wunderground v.1.15,2013-04-21 17:50:00,
2013-04-21 13:00:00,66.8,42.3,30.06,SSW,195,17.0,17.0,41,0.00,,,0.00,Wunderground v.1.15,2013-04-21 18:00:00,
2013-04-21 13:05:00,68.3,44.3,30.05,SW,222,17.0,19.0,42,0.00,,,0.00,Wunderground v.1.15,2013-04-21 18:05:00,
2013-04-21 13:15:00,69.1,44.4,30.05,South,180,15.0,16.0,41,0.00,,,0.00,Wunderground v.1.15,2013-04-21 18:15:00,
2013-04-21 13:20:00,68.2,43.6,30.04,South,189,16.0,16.0,41,0.00,,,0.00,Wunderground v.1.15,2013-04-21 18:20:00,
2013-04-21 13:30:00,68.3,43.7,30.04,South,180,16.0,20.0,41,0.00,,,0.00,Wunderground v.1.15,2013-04-21 18:30:00,
2013-04-21 13:40:00,67.3,44.0,30.04,SW,218,14.0,14.0,43,0.00,,,0.00,Wunderground v.1.15,2013-04-21 18:40:00,
2013-04-21 13:45:00,67.1,43.8,30.04,SW,215,14.0,14.0,43,0.00,,,0.00,Wunderground v.1.15,2013-04-21 18:45:00,
2013-04-21 13:50:00,67.6,43.7,30.03,WSW,240,14.0,14.0,42,0.00,,,0.00,Wunderground v.1.15,2013-04-21 18:50:00,
2013-04-21 14:00:00,68.7,43.4,30.03,SSW,208,16.0,16.0,40,0.00,,,0.00,Wunderground v.1.15,2013-04-21 19:00:00,
2013-04-21 14:05:00,68.1,42.2,30.03,South,188,19.0,19.0,39,0.00,,,0.00,Wunderground v.1.15,2013-04-21 19:05:00,
2013-04-21 14:15:00,68.5,41.2,30.03,SSW,194,19.0,24.0,37,0.00,,,0.00,Wunderground v.1.15,2013-04-21 19:15:00,
2013-04-21 14:25:00,68.4,41.8,30.03,SSW,207,22.0,22.0,38,0.00,,,0.00,Wunderground v.1.15,2013-04-21 19:25:00,
2013-04-21 14:30:00,68.5,41.9,30.03,SW,229,18.0,18.0,38,0.00,,,0.00,Wunderground v.1.15,2013-04-21 19:30:00,
2013-04-21 14:35:00,67.9,41.3,30.02,SW,234,16.0,20.0,38,0.00,,,0.00,Wunderground v.1.15,2013-04-21 19:35:00,
2013-04-21 14:45:00,67.3,41.5,30.02,SSW,197,17.0,19.0,39,0.00,,,0.00,Wunderground v.1.15,2013-04-21 19:45:00,
2013-04-21 14:50:00,67.4,42.2,30.02,SSW,213,17.0,21.0,40,0.00,,,0.00,Wunderground v.1.15,2013-04-21 19:50:00,
2013-04-21 15:00:00,67.9,42.7,30.02,SSW,208,14.0,14.0,40,0.00,,,0.00,Wunderground v.1.15,2013-04-21 20:00:00,
2013-04-21 15:05:00,67.8,41.9,30.02,SW,220,13.0,17.0,39,0.00,,,0.00,Wunderground v.1.15,2013-04-21 20:05:00,
2013-04-21 15:15:00,68.1,43.5,30.01,SSW,211,15.0,23.0,41,0.00,,,0.00,Wunderground v.1.15,2013-04-21 20:15:00,
2013-04-21 15:20:00,68.0,44.0,30.01,SSW,198,15.0,16.0,42,0.00,,,0.00,Wunderground v.1.15,2013-04-21 20:20:00,
2013-04-21 15:30:00,67.0,43.8,30.01,SW,232,14.0,14.0,43,0.00,,,0.00,Wunderground v.1.15,2013-04-21 20:30:00,
2013-04-21 15:35:00,67.0,43.8,30.00,South,188,12.0,14.0,43,0.00,,,0.00,Wunderground v.1.15,2013-04-21 20:35:00,
2013-04-21 15:45:00,66.1,42.9,30.00,SW,221,14.0,14.0,43,0.00,,,0.00,Wunderground v.1.15,2013-04-21 20:45:00,
2013-04-21 15:55:00,65.3,42.8,30.00,South,188,12.0,16.0,44,0.00,,,0.00,Wunderground v.1.15,2013-04-21 20:55:00,
2013-04-21 16:00:00,65.0,43.1,30.00,WSW,242,12.0,12.0,45,0.00,,,0.00,Wunderground v.1.15,2013-04-21 21:00:00,
2013-04-21 16:05:00,64.9,43.0,30.00,South,191,11.0,14.0,45,0.00,,,0.00,Wunderground v.1.15,2013-04-21 21:05:00,
2013-04-21 16:15:00,64.7,42.9,30.00,South,181,14.0,14.0,45,0.00,,,0.00,Wunderground v.1.15,2013-04-21 21:15:00,
2013-04-21 16:25:00,64.4,44.3,30.00,SSE,165,11.0,13.0,48,0.00,,,0.00,Wunderground v.1.15,2013-04-21 21:25:00,
2013-04-21 16:30:00,64.3,44.2,30.00,SSW,196,9.0,10.0,48,0.00,,,0.00,Wunderground v.1.15,2013-04-21 21:30:00,
2013-04-21 16:40:00,64.7,44.5,29.99,SSW,200,11.0,11.0,48,0.00,,,0.00,Wunderground v.1.15,2013-04-21 21:40:00,
2013-04-21 16:50:00,65.4,44.6,29.99,SSE,147,11.0,11.0,47,0.00,,,0.00,Wunderground v.1.15,2013-04-21 21:50:00,
2013-04-21 16:55:00,65.5,43.6,29.99,SSW,206,11.0,17.0,45,0.00,,,0.00,Wunderground v.1.15,2013-04-21 21:55:00,
2013-04-21 17:05:00,65.8,43.3,29.99,South,186,9.0,15.0,44,0.00,,,0.00,Wunderground v.1.15,2013-04-21 22:05:00,
2013-04-21 17:15:00,65.9,43.4,29.99,SW,230,10.0,14.0,44,0.00,,,0.00,Wunderground v.1.15,2013-04-21 22:15:00,
2013-04-21 17:20:00,65.9,43.4,29.99,SSW,205,11.0,11.0,44,0.00,,,0.00,Wunderground v.1.15,2013-04-21 22:20:00,
2013-04-21 17:25:00,65.9,42.8,29.99,SSW,197,12.0,17.0,43,0.00,,,0.00,Wunderground v.1.15,2013-04-21 22:25:00,
2013-04-21 17:35:00,66.0,42.2,29.99,SSW,196,13.0,13.0,42,0.00,,,0.00,Wunderground v.1.15,2013-04-21 22:35:00,
2013-04-21 17:45:00,66.1,42.9,29.99,SSW,200,12.0,18.0,43,0.00,,,0.00,Wunderground v.1.15,2013-04-21 22:45:00,
2013-04-21 17:50:00,65.8,42.7,29.99,SW,224,13.0,13.0,43,0.00,,,0.00,Wunderground v.1.15,2013-04-21 22:50:00,
2013-04-21 18:00:00,65.4,42.3,29.99,SSW,192,10.0,10.0,43,0.00,,,0.00,Wunderground v.1.15,2013-04-21 23:00:00,
2013-04-21 18:05:00,65.2,42.1,29.99,SSW,211,10.0,15.0,43,0.00,,,0.00,Wunderground v.1.15,2013-04-21 23:05:00,
2013-04-21 18:15:00,64.9,41.9,29.99,SSW,202,12.0,12.0,43,0.00,,,0.00,Wunderground v.1.15,2013-04-21 23:15:00,
2013-04-21 18:25:00,64.7,42.3,29.98,SSW,196,11.0,13.0,44,0.00,,,0.00,Wunderground v.1.15,2013-04-21 23:25:00,
2013-04-21 18:35:00,64.4,42.6,29.99,SSE,165,10.0,14.0,45,0.00,,,0.00,Wunderground v.1.15,2013-04-21 23:35:00,
2013-04-21 18:40:00,64.3,42.5,29.99,SW,226,9.0,9.0,45,0.00,,,0.00,Wunderground v.1.15,2013-04-21 23:40:00,
2013-04-21 18:50:00,64.1,42.9,29.99,SSW,202,9.0,9.0,46,0.00,,,0.00,Wunderground v.1.15,2013-04-21 23:50:00,
2013-04-21 18:55:00,64.0,43.4,29.99,South,178,8.0,9.0,47,0.00,,,0.00,Wunderground v.1.15,2013-04-21 23:55:00,
2013-04-21 19:05:00,63.6,44.1,29.98,SE,142,7.0,13.0,49,0.00,,,0.00,Wunderground v.1.15,2013-04-22 00:05:00,
2013-04-21 19:15:00,63.2,44.2,29.97,SSE,155,8.0,9.0,50,0.00,,,0.00,Wunderground v.1.15,2013-04-22 00:15:00,
2013-04-21 19:20:00,63.0,43.5,29.97,SE,137,8.0,8.0,49,0.00,,,0.00,Wunderground v.1.15,2013-04-22 00:20:00,
2013-04-21 19:25:00,62.7,43.8,29.97,SSE,147,8.0,11.0,50,0.00,,,0.00,Wunderground v.1.15,2013-04-22 00:25:00,
2013-04-21 19:35:00,62.5,44.6,29.98,South,178,7.0,10.0,52,0.00,,,0.00,Wunderground v.1.15,2013-04-22 00:35:00,
2013-04-21 19:45:00,62.2,45.3,29.98,SSE,154,6.0,7.0,54,0.00,,,0.00,Wunderground v.1.15,2013-04-22 00:45:00,
2013-04-21 19:55:00,62.0,45.2,29.98,SSE,154,6.0,9.0,54,0.00,,,0.00,Wunderground v.1.15,2013-04-22 00:55:00,
2013-04-21 20:00:00,61.8,45.0,29.99,SSE,155,6.0,6.0,54,0.00,,,0.00,Wunderground v.1.15,2013-04-22 01:00:00,
2013-04-21 20:05:00,61.7,45.4,29.99,South,188,6.0,6.0,55,0.00,,,0.00,Wunderground v.1.15,2013-04-22 01:05:00,
2013-04-21 20:15:00,61.4,45.1,29.99,SSE,165,6.0,6.0,55,0.00,,,0.00,Wunderground v.1.15,2013-04-22 01:15:00,
2013-04-21 20:25:00,61.3,45.0,30.01,West,265,5.0,10.0,55,0.00,,,0.00,Wunderground v.1.15,2013-04-22 01:25:00,
2013-04-21 20:30:00,60.8,47.3,30.02,WNW,297,8.0,13.0,61,0.00,,,0.00,Wunderground v.1.15,2013-04-22 01:30:00,
2013-04-21 20:40:00,58.9,47.2,30.02,WNW,302,12.0,12.0,65,0.00,,,0.00,Wunderground v.1.15,2013-04-22 01:40:00,
2013-04-21 20:45:00,57.9,48.2,30.03,WNW,295,12.0,15.0,70,0.00,,,0.00,Wunderground v.1.15,2013-04-22 01:45:00,
2013-04-21 20:55:00,55.8,48.3,30.05,NW,313,13.0,13.0,76,0.71,,,0.05,Wunderground v.1.15,2013-04-22 01:55:00,
2013-04-21 21:05:00,54.6,48.9,30.06,NNW,340,10.0,14.0,81,0.12,,,0.08,Wunderground v.1.15,2013-04-22 02:05:00,
2013-04-21 21:15:00,53.8,48.8,30.08,NW,307,8.0,11.0,83,0.42,,,0.20,Wunderground v.1.15,2013-04-22 02:15:00,
2013-04-21 21:20:00,53.5,48.8,30.07,NNW,336,6.0,6.0,84,0.55,,,0.24,Wunderground v.1.15,2013-04-22 02:20:00,
2013-04-21 21:30:00,53.2,48.8,30.08,NW,325,4.0,4.0,85,0.24,,,0.30,Wunderground v.1.15,2013-04-22 02:30:00,
2013-04-21 21:35:00,53.0,48.9,30.08,NW,325,3.0,4.0,86,0.25,,,0.32,Wunderground v.1.15,2013-04-22 02:35:00,
2013-04-21 21:45:00,52.8,48.7,30.08,NW,325,0.0,1.0,86,0.30,,,0.36,Wunderground v.1.15,2013-04-22 02:45:00,
2013-04-21 21:55:00,52.7,48.9,30.08,NW,325,0.0,0.0,87,0.15,,,0.40,Wunderground v.1.15,2013-04-22 02:55:00,
2013-04-21 22:00:00,52.6,49.1,30.08,NW,325,0.0,0.0,88,0.17,,,0.42,Wunderground v.1.15,2013-04-22 03:00:00,
2013-04-21 22:05:00,52.5,49.0,30.08,WSW,242,0.0,3.0,88,0.25,,,0.44,Wunderground v.1.15,2013-04-22 03:05:00,
2013-04-21 22:15:00,52.4,48.9,30.08,SSW,193,4.0,4.0,88,0.26,,,0.48,Wunderground v.1.15,2013-04-22 03:15:00,
2013-04-21 22:20:00,52.4,49.3,30.08,SSE,160,6.0,6.0,89,0.66,,,0.52,Wunderground v.1.15,2013-04-22 03:20:00,
2013-04-21 22:25:00,52.4,49.3,30.06,SSE,148,8.0,11.0,89,0.52,,,0.56,Wunderground v.1.15,2013-04-22 03:25:00,
2013-04-21 22:35:00,52.3,49.5,30.08,SE,146,7.0,9.0,90,0.08,,,0.58,Wunderground v.1.15,2013-04-22 03:35:00,
2013-04-21 22:40:00,52.2,49.4,30.08,SSE,148,6.0,8.0,90,0.05,,,0.58,Wunderground v.1.15,2013-04-22 03:40:00,
2013-04-21 22:50:00,52.1,49.3,30.09,South,179,7.0,7.0,90,0.00,,,0.58,Wunderground v.1.15,2013-04-22 03:50:00,
2013-04-21 22:55:00,52.0,49.2,30.08,SE,146,7.0,7.0,90,0.00,,,0.58,Wunderground v.1.15,2013-04-22 03:55:00,
2013-04-21 23:05:00,51.9,49.4,30.09,SE,146,6.0,7.0,91,0.00,,,0.59,Wunderground v.1.15,2013-04-22 04:05:00,
2013-04-21 23:15:00,51.8,49.3,30.09,SE,144,5.0,9.0,91,0.00,,,0.59,Wunderground v.1.15,2013-04-22 04:15:00,
2013-04-21 23:20:00,51.7,49.2,30.09,SSE,147,6.0,6.0,91,0.00,,,0.59,Wunderground v.1.15,2013-04-22 04:20:00,
2013-04-21 23:25:00,51.5,49.0,30.09,SSE,153,6.0,6.0,91,0.00,,,0.59,Wunderground v.1.15,2013-04-22 04:25:00,
2013-04-21 23:35:00,51.4,48.9,30.08,SE,129,5.0,5.0,91,0.00,,,0.59,Wunderground v.1.15,2013-04-22 04:35:00,
2013-04-21 23:40:00,51.3,48.8,30.08,SE,129,4.0,4.0,91,0.00,,,0.59,Wunderground v.1.15,2013-04-22 04:40:00,
2013-04-21 23:50:00,51.1,48.6,30.08,East,96,2.0,5.0,91,0.00,,,0.59,Wunderground v.1.15,2013-04-22 04:50:00,